Tracking 28096 objects as of 29-Sep-2023
HD Live streaming from Space Station
objects crossing your sky now

STARLINK-4341

Track STARLINK-4341 now!
10-day predictions
STARLINK-4341 is classified as:


NORAD ID: 53052
Int'l Code: 2022-077K
Perigee: 569.2 km
Apogee: 571.1 km
Inclination: 97.7 °
Period: 95.9 minutes
Semi major axis: 6941 km
RCS: Unknown
Launch date: July 11, 2022
Source: United States (US)
Launch site: AIR FORCE WESTERN TEST RANGE (AFWTR)
Your satellite tracking list
Your tracking list is empty




NASA's NSSDC Master Catalog

Two Line Element Set (TLE):
1 53052U 22077K   23271.48992912 -.00000153  00000-0 -73184-5 0  9991
2 53052  97.6543  91.0857 0001398  88.9730 271.1655 15.01258653 66901
Source of the keplerian elements: AFSPC